TimeCST,TemperatureF,Dew PointF,Humidity,Sea Level PressureIn,VisibilityMPH,Wind Direction,Wind SpeedMPH,Gust SpeedMPH,PrecipitationIn,Events,Conditions,WindDirDegrees,DateUTC
12:15 AM,37.4,19.4,48,30.01,10.0,Calm,Calm,-,N/A,,Scattered Clouds,0,2012-11-25 06:15:00
12:35 AM,37.4,19.4,48,30.00,10.0,SE,6.9,-,N/A,,Mostly Cloudy,130,2012-11-25 06:35:00
12:55 AM,37.4,19.4,48,29.99,10.0,SE,6.9,-,N/A,,Mostly Cloudy,130,2012-11-25 06:55:00
1:15 AM,37.4,19.4,48,29.99,10.0,SE,5.8,-,N/A,,Scattered Clouds,130,2012-11-25 07:15:00
1:35 AM,37.4,19.4,48,29.98,10.0,SE,5.8,-,N/A,,Clear,130,2012-11-25 07:35:00
1:55 AM,37.4,19.4,48,29.98,10.0,Calm,Calm,-,N/A,,Clear,0,2012-11-25 07:55:00
2:15 AM,39.2,19.4,45,29.97,10.0,Calm,Calm,-,N/A,,Clear,0,2012-11-25 08:15:00
2:35 AM,37.4,19.4,48,29.97,10.0,SE,5.8,-,N/A,,Clear,130,2012-11-25 08:35:00
2:55 AM,39.2,19.4,45,29.97,10.0,Calm,Calm,-,N/A,,Clear,0,2012-11-25 08:55:00
3:15 AM,39.2,19.4,45,29.96,10.0,Calm,Calm,-,N/A,,Clear,0,2012-11-25 09:15:00
3:35 AM,39.2,19.4,45,29.95,10.0,Calm,Calm,-,N/A,,Clear,0,2012-11-25 09:35:00
3:55 AM,37.4,19.4,48,29.95,10.0,Calm,Calm,-,N/A,,Clear,0,2012-11-25 09:55:00
4:15 AM,37.4,19.4,48,29.94,10.0,Calm,Calm,-,N/A,,Clear,0,2012-11-25 10:15:00
4:35 AM,37.4,19.4,48,29.94,10.0,Calm,Calm,-,N/A,,Clear,0,2012-11-25 10:35:00
4:55 AM,35.6,21.2,56,29.94,10.0,Calm,Calm,-,N/A,,Clear,0,2012-11-25 10:55:00
5:15 AM,32.0,23.0,69,29.94,10.0,Calm,Calm,-,N/A,,Clear,0,2012-11-25 11:15:00
5:35 AM,35.6,23.0,60,29.94,10.0,Calm,Calm,-,N/A,,Clear,0,2012-11-25 11:35:00
5:55 AM,32.0,23.0,69,29.94,10.0,Calm,Calm,-,N/A,,Clear,0,2012-11-25 11:55:00
6:15 AM,37.4,21.2,52,29.94,10.0,Calm,Calm,-,N/A,,Partly Cloudy,0,2012-11-25 12:15:00
6:35 AM,37.4,23.0,56,29.95,10.0,Calm,Calm,-,N/A,,Clear,0,2012-11-25 12:35:00
6:55 AM,35.6,23.0,60,29.95,10.0,Calm,Calm,-,N/A,,Clear,0,2012-11-25 12:55:00
7:15 AM,30.2,23.0,75,29.95,10.0,Calm,Calm,-,N/A,,Clear,0,2012-11-25 13:15:00
7:35 AM,28.4,23.0,80,29.96,10.0,Calm,Calm,-,N/A,,Clear,0,2012-11-25 13:35:00
7:55 AM,35.6,23.0,60,29.96,10.0,Calm,Calm,-,N/A,,Clear,0,2012-11-25 13:55:00
8:15 AM,37.4,26.6,65,29.97,10.0,Calm,Calm,-,N/A,,Clear,0,2012-11-25 14:15:00
8:35 AM,39.2,24.8,56,29.97,10.0,Calm,Calm,-,N/A,,Clear,0,2012-11-25 14:35:00
8:55 AM,41.0,24.8,53,29.97,10.0,Calm,Calm,-,N/A,,Clear,0,2012-11-25 14:55:00
9:15 AM,42.8,24.8,49,29.97,10.0,Calm,Calm,-,N/A,,Clear,0,2012-11-25 15:15:00
9:35 AM,44.6,24.8,46,29.97,10.0,Calm,Calm,-,N/A,,Clear,0,2012-11-25 15:35:00
9:55 AM,46.4,26.6,46,29.97,10.0,West,4.6,-,N/A,,Clear,280,2012-11-25 15:55:00
10:15 AM,48.2,24.8,40,29.96,10.0,West,4.6,-,N/A,,Clear,260,2012-11-25 16:15:00
10:35 AM,50.0,24.8,37,29.95,10.0,West,8.1,16.1,N/A,,Clear,270,2012-11-25 16:35:00
10:55 AM,50.0,26.6,40,29.95,10.0,NW,8.1,-,N/A,,Clear,310,2012-11-25 16:55:00
11:15 AM,50.0,26.6,40,29.94,10.0,WNW,10.4,-,N/A,,Clear,300,2012-11-25 17:15:00
11:35 AM,51.8,26.6,38,29.93,10.0,WNW,8.1,-,N/A,,Clear,300,2012-11-25 17:35:00
11:55 AM,53.6,26.6,35,29.92,10.0,West,4.6,-,N/A,,Clear,270,2012-11-25 17:55:00
12:15 PM,53.6,26.6,35,29.92,10.0,NW,9.2,-,N/A,,Clear,310,2012-11-25 18:15:00
12:35 PM,53.6,26.6,35,29.92,10.0,NW,9.2,-,N/A,,Clear,320,2012-11-25 18:35:00
12:55 PM,53.6,26.6,35,29.92,10.0,North,5.8,-,N/A,,Clear,350,2012-11-25 18:55:00
1:15 PM,53.6,26.6,35,29.92,10.0,NNW,8.1,-,N/A,,Clear,330,2012-11-25 19:15:00
1:35 PM,55.4,26.6,33,29.91,10.0,NW,6.9,-,N/A,,Clear,310,2012-11-25 19:35:00
1:55 PM,55.4,26.6,33,29.91,10.0,WNW,4.6,-,N/A,,Clear,290,2012-11-25 19:55:00
2:15 PM,55.4,28.4,36,29.91,10.0,WNW,4.6,-,N/A,,Clear,300,2012-11-25 20:15:00
2:35 PM,55.4,28.4,36,29.90,10.0,WNW,6.9,-,N/A,,Clear,300,2012-11-25 20:35:00
2:55 PM,55.4,28.4,36,29.90,10.0,Calm,Calm,-,N/A,,Clear,0,2012-11-25 20:55:00
3:15 PM,55.4,28.4,36,29.91,10.0,Calm,Calm,-,N/A,,Clear,0,2012-11-25 21:15:00
3:35 PM,55.4,28.4,36,29.91,10.0,Calm,Calm,-,N/A,,Clear,0,2012-11-25 21:35:00
3:55 PM,55.4,28.4,36,29.92,10.0,Calm,Calm,-,N/A,,Clear,0,2012-11-25 21:55:00
4:15 PM,53.6,28.4,38,29.93,10.0,Calm,Calm,-,N/A,,Clear,0,2012-11-25 22:15:00
4:35 PM,53.6,28.4,38,29.93,10.0,Calm,Calm,-,N/A,,Clear,0,2012-11-25 22:35:00
4:55 PM,50.0,28.4,43,29.93,10.0,Calm,Calm,-,N/A,,Clear,0,2012-11-25 22:55:00
5:15 PM,50.0,28.4,43,29.93,10.0,Calm,Calm,-,N/A,,Clear,0,2012-11-25 23:15:00
5:35 PM,50.0,26.6,40,29.94,10.0,NNE,5.8,-,N/A,,Clear,30,2012-11-25 23:35:00
5:55 PM,50.0,28.4,43,29.95,10.0,Calm,Calm,-,N/A,,Scattered Clouds,0,2012-11-25 23:55:00
6:15 PM,46.4,30.2,53,29.96,10.0,Calm,Calm,-,N/A,,Mostly Cloudy,0,2012-11-26 00:15:00
6:35 PM,41.0,28.4,61,29.96,10.0,Calm,Calm,-,N/A,,Overcast,0,2012-11-26 00:35:00
6:55 PM,44.6,28.4,53,29.97,10.0,NNE,3.5,-,N/A,,Mostly Cloudy,20,2012-11-26 00:55:00
7:15 PM,48.2,28.4,46,29.97,10.0,NNE,6.9,-,N/A,,Mostly Cloudy,20,2012-11-26 01:15:00
7:35 PM,46.4,28.4,50,29.98,10.0,North,5.8,-,N/A,,Partly Cloudy,10,2012-11-26 01:35:00
7:55 PM,46.4,28.4,50,29.98,10.0,NNE,6.9,-,N/A,,Clear,20,2012-11-26 01:55:00
8:15 PM,46.4,28.4,50,29.99,10.0,North,6.9,-,N/A,,Clear,10,2012-11-26 02:15:00
8:35 PM,46.4,28.4,50,30.00,10.0,Calm,Calm,-,N/A,,Clear,0,2012-11-26 02:35:00
8:55 PM,44.6,28.4,53,30.01,10.0,Calm,Calm,-,N/A,,Clear,0,2012-11-26 02:55:00
9:15 PM,44.6,30.2,57,30.02,10.0,Calm,Calm,-,N/A,,Clear,0,2012-11-26 03:15:00
9:35 PM,44.6,30.2,57,30.02,10.0,Calm,Calm,-,N/A,,Clear,0,2012-11-26 03:35:00
9:55 PM,42.8,28.4,57,30.02,10.0,Calm,Calm,-,N/A,,Clear,0,2012-11-26 03:55:00
10:15 PM,42.8,28.4,57,30.03,10.0,NE,5.8,-,N/A,,Clear,40,2012-11-26 04:15:00
10:35 PM,41.0,28.4,61,30.04,10.0,Calm,Calm,-,N/A,,Clear,0,2012-11-26 04:35:00
10:55 PM,41.0,28.4,61,30.05,10.0,Calm,Calm,-,N/A,,Clear,0,2012-11-26 04:55:00
11:15 PM,39.2,28.4,65,30.05,10.0,Calm,Calm,-,N/A,,Clear,0,2012-11-26 05:15:00
11:35 PM,39.2,28.4,65,30.05,10.0,Calm,Calm,-,N/A,,Clear,0,2012-11-26 05:35:00
11:55 PM,39.2,28.4,65,30.05,10.0,Calm,Calm,-,N/A,,Clear,0,2012-11-26 05:55:00